Location: Daouli
(14.8671°N, 3.2030°W)
Time: 14:13:08
(UTC+00:00)

Daily predictions for brighter satellites

Satellite Brightness Start Highest point End
(mag) Time Altitude Azimuth Time Altitude Azimuth Time Altitude Azimuth
Meteor 1-11 4.4 17:56:12 10° N 18:01:59 87° W 18:07:48 10° S
Geosat 4.4 17:58:48 10° NE 18:03:33 44° ESE 18:08:18 10° S
SKYMED 2 3.6 18:00:38 10° NNE 18:04:58 85° E 18:09:18 10° S
CZ-2C R/B 3.5 18:03:14 10° S 18:05:20 13° SE 18:07:23 10° ESE
AQUARIUS 4.2 18:02:11 10° SSE 18:06:40 86° E 18:11:10 10° N
Cosmos 44 Rocket 4.0 18:05:27 10° SW 18:10:00 55° WNW 18:14:38 10° NNE
Meteor 2-16 Rocket 4.4 18:07:44 10° N 18:13:48 72° E 18:19:54 10° S
MOS 1 Rocket 4.3 18:13:23 10° NE 18:17:53 32° E 18:22:33 10° SSE
Cosmos 2219 4.0 18:15:02 10° N 18:19:59 29° ENE 18:24:53 10° SE
CZ-4B R/B 4.1 18:16:06 10° S 18:21:36 55° WSW 18:27:04 10° NNW
Cosmos 1953 Rocket 4.0 18:20:55 10° N 18:25:19 67° W 18:29:46 10° S
Cosmos 967 Rocket 4.5 18:20:44 10° SSW 18:27:07 71° ESE 18:33:29 10° NNE
Cosmos 1408 4.0 18:24:33 10° NE 18:27:12 19° E 18:29:51 10° SE
IRS-1C Rocket 4.3 18:22:59 10° SSE 18:27:59 45° ENE 18:32:58 10° N
Centaur AC-119 4.3 18:23:17 10° WNW 18:28:26 19° NNW 18:30:59 10° NNE
Cosmos 1939 Rocket 3.0 18:24:40 10° SSE 18:28:32 47° ENE 18:32:20 10° N
USA 281 3.2 18:23:36 10° SSE 18:30:09 84° ENE 18:36:43 10° NNW
Longmarch 3A Rocket 2.2 18:28:17 10° NW 18:30:28 39° NNE 18:35:03 14° E
Cosmos 968 Rocket 4.3 18:28:23 10° NNE 18:32:37 26° ENE 18:36:49 10° SE
CZ-2C R/B 4.0 18:33:33 16° E 18:34:20 17° E 18:37:36 10° SE
SL-16 R/B 3.4 18:33:48 10° SSE 18:37:56 21° ESE 18:39:25 19° E
Delta 7925 Rocket 4.0 18:34:45 10° WSW 18:41:41 66° NNW 18:45:32 20° NE
Cosmos 1076 Rocket 4.5 18:38:20 10° NNE 18:41:46 24° E 18:45:15 10° SE
Cosmos-2242 3.6 18:39:35 10° SSE 18:43:25 33° E 18:46:01 17° NE
Cosmos 1892 2.6 18:40:04 10° N 18:43:54 63° E 18:47:43 10° SSE
GPS 2-12 Rocket1 3.8 18:40:50 10° W 18:45:05 46° SSW 18:48:25 15° SE
Helios 1A Rocket 3.1 18:42:11 10° SSE 18:46:08 46° ENE 18:50:05 10° N
SEDSat Delta rocket 4.4 18:41:24 10° WSW 18:48:03 56° NNW 18:52:42 19° NE
YAOGAN 1 3.1 18:45:29 10° SE 18:49:22 33° ENE 18:53:15 10° NNE
CZ-4 R/B 4.3 18:45:35 10° SSE 18:49:41 68° ENE 18:53:49 10° N
Cosmos 883 Rocket 4.4 18:44:09 10° S 18:50:20 75° E 18:56:27 10° N
Cosmos 2227 Rocket 2.5 18:45:34 10° N 18:50:54 43° ENE 18:56:15 10° SE
SL-08 ROCKET BODY 4.4 18:47:11 10° N 18:53:20 74° E 18:59:30 10° S
CZ-2D R/B 3.1 18:49:33 10° SSE 18:53:21 75° ENE 18:57:08 10° N
Cosmos 1812 Rocket 4.2 18:51:28 10° SSW 18:55:49 57° W 19:00:09 10° N
CZ-4 R/B 1.3 18:53:01 10° SSE 18:56:52 53° ENE 19:00:39 10° N
Cosmos 2315 Rocket 3.9 18:54:56 10° S 19:01:08 74° E 19:07:18 10° N
Cosmos 1486 Rocket 3.9 18:57:23 10° N 19:02:38 63° ENE 19:07:49 10° SSE
ASC 2 Rocket 3.7 18:58:57 10° WNW 19:03:02 43° NNE 19:04:12 37° NE
Hubble Space Telescope 2.8 19:01:05 10° W 19:04:27 24° SSW 19:07:30 12° SSE
Milstar 3 3.9 19:01:35 10° NW 19:07:25 28° N 19:09:47 23° NE
Atlas Centaur 2 4.3 19:02:19 10° NW 19:09:07 27° N 19:12:40 20° NE
Cosmos 1980 Rocket 3.9 19:06:21 10° SW 19:11:19 32° WNW 19:16:16 10° N
CZ-2C R/B 3.2 19:08:59 10° SSE 19:14:47 75° ENE 19:20:32 10° N
CCE 1 Rocket 4.4 19:10:19 10° WNW 19:15:04 76° SSW 19:19:14 28° SE
CSL-04 Debris 4.4 19:10:59 10° SSE 19:16:46 47° NE 19:21:22 10° N
GPS 2-14 Rocket1 3.5 19:14:51 10° W 19:18:49 43° SSW 19:19:24 40° S
Cosmos 1346 Rocket 3.3 19:15:11 10° NNW 19:19:06 59° W 19:23:01 10° S
SWIFT 3.9 19:16:19 10° W 19:20:03 29° SSW 19:21:11 25° S
Cosmos 2058 3.5 19:16:34 10° NNW 19:20:34 54° W 19:24:35 10° S
NOAA 15 4.5 19:15:46 10° SSE 19:21:04 89° ENE 19:26:23 10° NNW
Cosmos 2297 Rocket 2.9 19:24:48 10° NNW 19:30:17 54° WSW 19:35:45 10° S
EO 1 Delta rocket 4.2 19:29:50 24° N 19:32:33 64° W 19:37:36 10° SSW
Okean-O 3.8 19:29:36 10° S 19:33:46 41° W 19:37:57 10° NNW
H-2A R/B 3.0 19:29:38 10° SSE 19:37:10 37° N 19:40:22 10° N
Cosmos 2322 Rocket 2.4 19:38:43 10° SSW 19:43:24 62° S 19:43:24 62° S
CZ-2C R/B 2.9 19:40:42 10° WSW 19:43:09 33° WSW 19:43:09 33° WSW
CZ-2C R/B 4.1 20:15:04 33° W 20:15:04 33° W 20:19:12 10° SW
SL-16 R/B 3.9 20:16:53 10° SW 20:21:23 29° WNW 20:21:23 29° WNW
H-2A R/B (2) 4.4 20:00:04 10° W 20:30:31 37° NNW 20:30:54 37° N
